RH
41 23 20 19 20 18 15 10 8 8 9 12 15 16 18 17 18 45 37 45 48 54 72 73 92 93 91 91 91 91 88 86 85 87 86 86 85 84 84 83 82 81 80 76 74 74 74 78 82
17 14 16 16 23 20 12 8 10 8 10 14 14 14 16 19 23 23 44 42 43 44 63 67 90 92 92 91 91 90 87 86 85 86 87 85 84 85 83 82 81 80 79 75 75 75 75 79 81
26 18 15 18 18 18 13 8 8 8 9 10 12 12 16 23 28 28 42 44 47 50 50 63 89 90 92 91 89 90 87 86 85 85 86 84 85 84 83 82 80 78 77 73 73 74 77 81 80
19 15 14 18 18 12 9 8 8 8 8 10 12 15 19 26 26 36 37 42 49 54 52 86 88 89 91 91 89 88 88 87 86 86 85 85 83 83 84 81 78 76 75 72 72 74 78 80 78
15 11 16 17 15 11 8 8 8 9 9 13 12 17 21 33 30 34 38 44 52 59 70 79 88 89 90 89 86 83 81 88 87 87 86 85 82 83 82 80 77 75 74 77 75 78 80 79 76
15 12 18 17 12 8 8 8 8 9 9 9 14 18 22 32 30 41 43 47 57 63 77 78 83 89 86 90 89 88 84 82 83 88 86 83 83 82 81 79 77 78 79 82 82 82 79 79 80
16 14 16 13 12 10 8 9 11 10 10 12 15 20 22 34 36 43 45 56 66 72 80 83 85 86 92 94 92 91 96 96 82 88 85 84 83 81 80 80 80 83 85 85 84 83 81 80 77
13 14 16 13 13 11 8 11 10 10 11 14 12 17 29 40 43 47 47 62 67 79 87 88 91 93 92 93 89 88 97 94 92 88 86 85 83 83 83 83 84 86 86 85 82 84 83 81 79
11 16 17 13 12 10 9 11 10 8 10 11 11 16 30 39 36 44 48 68 75 80 83 86 89 91 90 92 91 86 87 88 94 88 88 85 75 78 79 81 87 87 87 86 85 86 85 81 74
13 17 14 10 9 8 7 9 9 10 11 14 12 16 32 30 34 38 37 59 72 76 89 89 88 89 87 85 94 95 97 95 94 82 82 70 76 79 75 86 89 89 87 86 87 87 83 69 66
13 16 11 9 7 7 7 8 7 10 12 11 16 16 23 35 36 40 43 40 60 73 85 90 84 86 84 85 91 97 97 97 98 90 78 76 74 84 90 89 83 87 86 78 80 79 61 55 58
13 10 10 9 8 8 8 7 9 9 13 11 11 17 19 29 36 34 34 38 62 74 82 84 83 86 89 91 95 95 98 97 97 92 79 86 86 86 89 71 72 72 70 71 69 65 61 56 55
14 10 8 8 8 8 8 8 9 10 10 9 10 21 27 30 30 30 36 43 54 70 86 80 76 75 79 85 95 98 97 99 96 93 87 86 78 85 76 67 67 63 65 63 60 59 55 56 54
13 10 8 8 8 8 9 9 10 11 9 9 14 22 28 29 31 29 38 42 58 71 80 82 80 75 73 84 88 94 97 99 99 98 96 88 81 81 73 71 61 61 62 58 56 54 57 56 56
12 13 11 9 9 10 9 11 13 9 9 10 13 20 24 37 32 32 34 44 60 67 70 83 84 81 84 82 85 93 95 96 96 97 97 92 83 78 79 81 74 62 59 62 59 54 58 58 51
16 15 18 11 10 9 10 15 10 9 9 10 15 20 24 32 35 32 35 41 57 61 76 82 80 87 86 87 92 93 96 94 93 94 96 92 82 72 84 82 72 60 58 60 60 60 60 60 58
22 22 18 14 9 10 10 14 10 9 10 14 17 17 23 28 36 35 35 42 51 56 72 83 84 84 88 88 92 94 98 97 94 94 94 88 81 71 78 84 80 60 65 61 57 64 61 61 59
28 22 19 16 11 11 11 12 11 12 13 17 16 16 21 26 29 34 36 41 48 57 80 86 85 86 87 89 94 95 98 98 94 93 93 83 72 69 74 74 82 72 74 67 64 63 63 62 59
21 24 23 17 10 12 14 13 11 11 11 17 17 18 18 25 26 32 38 45 50 64 68 85 89 90 92 92 94 97 98 98 96 90 84 79 67 66 68 71 70 63 62 64 64 66 60 61 59
24 33 31 20 12 13 13 13 11 10 11 11 13 17 19 20 27 33 39 45 53 67 80 88 92 90 88 86 83 84 90 93 90 91 81 77 70 63 66 70 73 69 67 70 68 62 62 59 57
27 30 27 21 14 12 13 16 14 11 9 9 10 12 14 20 27 35 40 46 55 62 73 81 90 89 86 87 91 91 93 93 93 93 92 70 67 62 61 70 68 72 76 79 74 73 67 69 64
28 20 20 20 21 23 14 23 16 13 11 10 11 15 15 14 22 33 39 44 52 56 77 78 87 89 83 86 86 90 90 90 78 83 84 73 72 62 54 62 68 67 75 81 81 74 76 76 66
30 26 28 24 22 24 19 21 18 12 12 11 12 14 16 16 20 31 38 40 43 52 66 76 82 88 83 84 81 83 82 81 75 77 83 84 83 74 81 65 83 84 73 84 84 82 76 80 87
31 40 37 28 28 36 24 23 23 18 14 11 11 12 13 16 19 24 34 38 40 50 63 67 79 84 83 85 80 81 76 78 78 78 84 84 75 73 80 71 82 86 88 84 86 81 89 89 83
28 51 52 50 47 46 23 25 26 17 12 12 13 11 14 19 21 24 32 37 40 52 64 65 72 78 81 87 83 80 76 76 77 74 77 77 74 69 67 84 88 80 81 84 81 83 88 83 87
33 45 51 77 63 37 22 27 21 14 12 11 10 13 14 17 24 23 29 37 39 49 57 59 61 69 78 85 85 79 74 72 71 75 69 73 72 66 62 76 82 84 75 78 85 84 85 88 88
40 57 33 38 44 51 36 20 15 15 13 12 12 13 15 18 21 24 26 36 40 45 55 60 58 62 72 81 84 82 79 74 73 74 74 72 68 66 70 80 83 85 84 76 68 74 76 76 78
34 27 49 39 70 69 36 28 27 19 18 13 14 16 18 17 18 23 26 37 38 41 46 58 54 55 70 76 81 81 81 77 75 72 73 73 72 68 64 73 78 77 79 75 73 75 71 71 72
38 39 43 44 41 56 60 44 29 25 20 21 20 18 21 21 22 22 25 32 38 41 42 52 51 53 59 74 78 79 82 79 77 76 72 71 73 71 67 66 71 74 75 72 70 71 66 70 69
30 43 38 62 54 43 52 44 26 26 24 22 19 20 21 21 20 22 27 32 38 40 40 46 49 48 53 61 73 78 77 79 81 79 74 73 74 71 68 65 66 68 71 70 72 73 64 66 66
Wind_Speed
6 9 9 10 6 9 17 17 8 5 2 6 7 4 11 10 8 4 8 5 4 8 13 11 9 12 15 15 13 14 16 19 20 21 19 19 19 18 16 18 21 22 23 24 23 23 22 22 22
11 15 9 6 9 12 14 7 5 2 11 9 2 7 9 3 12 6 9 8 4 2 13 11 9 10 15 17 16 15 16 18 19 21 21 19 20 16 17 18 20 21 22 25 24 23 21 22 19
10 14 7 6 13 14 16 6 3 5 7 3 3 5 6 3 12 5 8 6 4 3 6 12 14 11 16 18 19 17 19 19 21 22 21 21 19 20 18 18 19 21 21 24 25 22 21 17 13
7 8 6 8 18 23 24 6 5 3 5 8 5 8 5 8 3 7 6 3 2 2 4 15 15 14 15 18 18 20 19 20 20 22 24 22 21 21 20 18 18 20 21 23 24 22 18 15 10
11 7 12 15 20 24 16 2 5 6 5 2 7 5 6 7 8 8 4 3 2 2 4 7 14 12 14 17 19 18 24 21 24 22 23 24 23 24 21 19 18 19 21 22 22 19 16 14 10
9 10 14 14 21 23 8 5 1 7 6 9 11 6 4 11 7 9 5 2 1 1 3 3 6 8 9 6 6 6 24 26 25 24 22 22 23 21 23 20 18 19 20 20 20 19 14 13 9
17 13 18 20 19 22 7 10 3 7 11 6 5 1 1 11 7 6 4 4 4 4 3 3 4 8 7 12 14 10 13 6 25 24 24 23 21 21 21 21 20 20 21 19 18 19 13 12 9
14 14 22 19 16 21 6 9 4 8 8 3 3 4 4 9 7 3 6 7 2 3 2 3 5 4 7 5 8 10 14 5 17 26 25 22 22 20 21 23 22 20 20 19 17 19 13 11 8
20 15 16 21 21 20 12 8 10 12 7 9 7 9 10 10 5 6 7 7 5 5 5 5 5 5 4 5 3 9 15 18 20 23 25 19 13 16 19 18 23 19 19 19 17 17 12 10 6
20 16 23 21 21 13 11 9 9 10 13 14 14 9 14 9 9 7 6 9 7 6 6 5 7 5 3 3 7 6 9 9 16 16 20 13 14 12 13 19 23 19 18 17 18 15 13 8 3
23 22 22 22 21 9 13 13 10 11 9 10 2 5 8 11 6 6 4 6 7 8 3 4 6 7 6 5 4 5 4 6 9 14 16 13 11 11 9 9 9 10 14 8 10 10 6 6 4
25 27 24 25 23 15 10 17 13 13 10 9 11 5 4 6 5 7 6 3 8 7 4 5 6 6 8 5 3 4 4 5 7 12 14 13 8 10 10 8 10 10 6 9 9 7 6 6 6
27 25 24 23 22 18 15 15 15 16 11 14 9 8 5 5 9 6 4 5 4 5 5 5 6 5 6 7 6 6 5 4 5 8 5 9 10 10 10 10 9 8 9 7 8 7 7 7 6
24 25 24 23 22 17 17 18 15 17 15 17 7 8 8 8 9 6 7 4 6 8 8 5 4 4 7 6 8 7 6 7 6 7 4 5 7 9 10 10 10 9 9 8 8 8 6 5 5
25 25 22 23 19 23 17 20 20 19 16 16 13 9 10 9 7 6 5 6 8 8 9 7 5 4 6 6 6 6 6 9 8 7 4 4 6 8 11 8 8 8 9 8 7 7 5 4 5
21 19 20 21 21 20 19 19 19 20 18 18 9 12 12 13 10 8 6 7 11 10 9 7 6 6 6 8 7 5 6 6 8 9 6 7 3 7 8 9 8 8 10 8 5 5 5 5 5
14 16 21 23 22 21 21 21 19 19 6 11 12 12 12 12 13 10 9 8 11 10 12 10 8 7 7 8 6 6 7 8 8 9 8 8 3 6 5 4 7 10 8 7 7 4 5 4 5
15 19 20 21 21 22 19 18 13 17 12 10 10 12 12 13 13 13 12 10 12 10 11 11 7 8 7 8 7 5 4 8 11 10 8 10 7 7 8 4 7 5 7 4 5 4 3 5 4
15 18 24 23 21 16 17 16 16 16 15 15 15 12 9 12 11 13 13 12 11 12 10 12 9 10 8 7 7 6 5 7 9 10 12 9 6 6 6 3 4 5 4 4 5 3 5 2 4
20 19 24 25 16 1 9 13 14 16 12 12 14 14 13 11 14 15 14 12 10 15 12 11 10 11 8 7 6 6 7 6 10 7 10 10 8 8 6 5 4 3 4 5 4 4 2 2 3
19 20 21 24 20 14 10 15 18 19 17 13 14 9 10 14 16 17 16 13 13 14 15 13 11 12 10 8 7 7 6 6 6 8 7 10 11 11 8 6 8 6 4 5 5 5 6 4 3
19 19 24 24 19 13 15 12 15 18 19 17 13 11 11 10 14 19 18 16 15 12 16 14 14 13 12 12 10 15 9 11 11 9 7 8 9 15 16 11 10 9 5 6 6 5 4 5 6
16 12 20 23 18 16 19 12 11 14 15 18 19 14 16 15 12 18 19 17 15 12 15 16 16 15 15 14 12 12 13 10 9 9 10 8 6 8 5 13 7 7 7 6 7 6 8 4 4
18 6 24 21 14 15 17 17 12 14 14 14 9 8 8 16 12 15 19 17 15 14 13 11 18 17 15 16 16 15 15 16 13 12 9 8 7 8 6 13 7 6 5 7 6 10 7 7 7
18 14 9 7 12 11 16 15 12 14 9 3 4 5 5 11 11 11 18 17 16 17 16 14 17 17 17 16 17 18 16 15 16 17 12 12 10 9 12 9 7 7 7 6 7 8 9 17 7
13 16 9 7 4 13 19 10 16 17 16 3 3 3 4 10 9 10 15 16 16 17 17 16 16 15 17 18 16 17 16 11 11 15 13 11 11 11 13 11 10 10 10 10 8 6 7 6 7
18 22 25 17 12 8 10 18 11 5 5 6 8 7 7 8 12 10 11 16 15 17 17 17 16 17 16 17 15 16 17 17 14 15 14 13 14 11 12 10 12 12 12 13 14 11 11 10 12
18 13 12 6 5 6 5 8 2 10 9 7 5 4 4 5 4 14 13 16 15 15 16 16 16 16 19 16 15 14 16 16 16 15 17 17 16 17 16 16 15 16 17 17 16 13 13 15 13
14 16 13 13 12 4 1 5 5 5 7 9 10 6 4 5 4 8 11 14 15 13 14 15 14 16 16 18 16 16 15 16 15 15 16 18 17 17 19 18 16 17 18 18 18 18 17 18 16
14 18 15 7 13 12 9 1 5 5 11 12 7 14 12 7 8 4 6 10 14 12 13 15 14 13 15 16 18 18 17 17 18 17 18 18 18 19 19 19 19 19 19 18 19 19 18 19 18
Wind_Direction
200 233 238 254 250 234 262 259 72 1 204 70 25 316 344 322 341 42 99 110 49 111 122 140 132 140 154 155 158 158 154 150 146 138 138 135 133 132 134 130 127 125 120 120 115 112 112 110 105
209 220 234 281 248 270 270 117 112 186 61 78 259 260 247 248 46 78 94 48 64 202 140 142 143 142 159 159 160 163 162 156 151 145 142 143 138 136 133 130 127 124 123 118 115 113 116 113 111
260 263 254 231 246 246 272 78 25 72 82 272 264 231 255 73 67 57 69 43 85 273 158 145 146 155 164 167 169 168 167 163 156 152 147 145 141 135 131 131 128 126 125 123 119 123 120 113 117
216 226 245 253 260 275 283 327 63 317 189 172 275 313 93 92 105 83 82 60 124 254 239 138 150 166 172 170 174 172 170 166 161 155 152 144 140 135 130 131 131 129 127 125 123 126 124 116 120
237 258 237 252 265 263 267 170 326 289 272 16 308 279 331 109 110 117 103 59 352 152 57 162 167 167 169 184 189 183 188 170 164 159 150 143 142 137 132 133 132 126 128 124 125 128 121 125 129
218 224 254 254 258 260 218 114 230 252 262 257 201 249 6 132 155 116 126 164 94 213 115 173 197 178 175 139 97 169 230 178 166 150 145 142 139 134 132 132 129 126 121 122 126 122 130 124 100
240 235 240 256 273 294 260 138 187 238 250 281 63 248 262 145 110 125 141 111 82 44 117 257 208 161 153 112 124 91 46 280 164 145 145 142 139 136 133 128 124 122 121 124 128 121 129 110 99
234 251 257 262 272 279 290 127 203 241 264 78 11 292 97 117 134 158 152 103 109 125 135 230 128 164 149 154 140 145 109 263 249 149 142 142 139 136 131 123 121 124 124 126 132 118 120 105 102
232 247 251 249 257 264 145 170 205 231 248 289 240 207 121 139 159 183 175 146 159 174 186 196 153 176 168 130 151 168 161 220 282 149 136 141 143 135 132 127 126 128 129 128 127 115 115 113 143
233 242 242 256 268 299 311 172 227 217 230 228 234 201 137 156 191 230 256 172 172 178 175 165 148 167 146 130 117 117 115 172 242 164 143 152 144 143 129 131 126 127 126 127 118 120 123 153 162
238 242 253 258 252 322 289 282 225 241 244 261 327 330 125 165 195 229 234 259 124 116 124 179 168 159 184 135 140 129 145 167 205 161 153 144 146 140 127 129 130 127 127 130 124 130 156 150 167
244 245 243 260 279 283 256 279 276 261 232 264 278 134 277 169 215 227 253 149 121 135 191 172 176 158 125 101 136 154 133 153 177 180 162 147 146 133 141 143 138 137 143 149 146 159 179 177 205
249 251 250 252 262 268 271 252 270 268 264 268 253 146 231 199 219 210 82 84 83 129 181 196 152 148 138 143 123 125 129 133 174 168 127 144 136 141 146 140 143 143 143 160 166 182 162 173 194
254 254 251 255 253 261 250 257 250 258 257 256 199 180 207 207 223 182 144 195 142 147 177 196 167 133 134 138 134 122 127 110 101 111 121 108 139 144 151 147 153 162 154 165 182 191 153 171 144
253 271 276 249 252 253 248 253 243 253 254 255 220 188 219 191 216 207 169 159 150 161 160 154 136 112 118 131 130 127 130 132 137 117 115 132 137 145 147 149 158 167 164 174 194 160 136 154 144
261 255 260 258 246 243 244 259 257 247 233 223 211 208 199 182 209 211 152 155 152 164 155 143 150 161 143 120 112 122 143 142 151 155 155 159 186 145 138 156 173 181 171 185 181 150 146 156 156
267 257 246 247 255 241 217 241 248 257 245 177 219 220 189 187 183 198 157 169 162 179 160 161 164 165 142 125 126 119 147 160 163 161 156 180 196 138 117 162 194 185 172 184 151 147 165 155 161
229 232 247 258 235 231 239 227 244 271 195 209 233 256 195 181 191 176 160 172 169 163 156 154 168 148 133 126 126 120 118 165 155 159 158 178 190 176 121 193 191 139 158 133 130 151 167 145 164
256 281 291 289 236 240 208 240 251 239 233 200 207 216 243 181 176 158 156 157 182 153 169 153 158 137 129 140 138 132 136 134 135 139 151 183 177 154 123 115 108 115 121 128 134 144 163 145 186
246 261 273 278 272 266 269 251 260 266 254 249 205 195 203 195 168 154 153 161 178 157 156 159 154 152 154 147 150 142 136 144 137 139 158 191 168 150 153 142 144 155 133 146 157 150 133 120 176
238 248 259 271 285 273 219 267 263 262 265 241 246 192 209 192 170 157 163 172 178 169 166 162 159 167 164 153 133 130 114 123 151 172 180 188 170 167 178 176 174 183 175 171 174 166 151 181 205
237 242 257 267 273 266 246 257 263 231 225 236 225 194 199 244 176 161 166 177 178 182 153 164 159 170 169 164 154 161 155 169 176 182 180 188 177 183 186 199 175 186 191 180 178 172 173 178 188
261 291 293 285 260 268 265 267 269 276 273 213 216 200 202 194 188 163 166 175 177 176 159 161 166 170 173 175 171 166 171 175 178 184 182 193 187 195 192 195 173 180 182 180 175 186 200 208 169
271 285 271 265 267 245 246 257 259 260 270 229 188 195 242 184 177 164 161 168 175 166 157 179 164 175 179 175 184 183 183 173 177 186 192 202 196 197 186 208 190 202 198 173 182 209 222 217 205
225 230 250 239 240 244 241 242 239 256 263 47 123 185 211 147 161 166 158 166 171 166 163 177 172 177 176 179 182 187 190 181 181 187 190 193 204 206 209 185 176 204 211 203 181 197 214 238 226
227 225 231 198 245 241 225 236 241 225 234 97 49 307 185 164 156 172 168 167 171 167 169 179 176 179 176 180 185 186 189 189 190 190 193 202 204 210 213 205 191 197 207 210 192 186 194 221 260
183 219 249 277 289 283 262 205 222 167 136 182 190 174 206 168 170 179 176 167 172 169 174 179 179 181 184 182 185 191 190 194 194 191 197 200 206 206 203 202 206 204 212 220 218 212 208 208 225
250 224 241 225 243 214 293 161 190 206 198 160 112 99 31 358 291 173 177 166 171 172 172 178 182 190 178 183 189 192 199 195 193 196 197 200 203 209 206 207 206 207 208 212 213 212 214 216 218
226 239 225 246 227 189 181 252 131 359 84 83 55 47 36 70 327 173 171 164 167 169 175 178 188 188 183 178 188 196 196 198 202 197 202 202 203 206 210 209 208 210 214 214 213 214 215 217 222
267 244 233 242 210 250 256 268 107 58 33 26 19 43 34 49 33 341 144 154 162 173 180 179 188 195 188 187 183 192 201 200 203 205 206 202 201 204 210 215 212 213 212 214 216 216 217 221 223